Location: Bushey
(51.6333°N, 0.3667°W)
Time: 01:43:39
(UTC+00:00)

SL-16 R/B - Pass Details

Date: 03 March 2021
Orbit: 842 x 846 km, 71.0° (Epoch: 11 April)

Event Time Altitude Azimuth Distance (km) Brightness Sun altitude
Rises 19:31:12 0° 224° (SW) 3,394 5.8 -17.1°
Reaches altitude 10° 19:33:42 10° 229° (SW) 2,463 5.1 -17.5°
Maximum altitude 19:39:14 55° 307° (NW) 1,014 2.9 -18.3°
Drops below altitude 10° 19:44:50 10° 25° (NNE) 2,479 4.5 -19.2°
Sets 19:47:21 0° 30° (NNE) 3,418 5.2 -19.6°
